When you browse on this site, cookies collect data to enhance your experience and personalize the content and advertising you see.
Visit our Privacy Policy to learn more. By continuing to use the site, you agree to this use of cookies and data.
  • Em Portugal
  • Lista de países
  • Para 7 dias
  • Temperatura da água
  • Mapa do tempo
  • Widgets de tempo
  • user-avatar
    Iniciar Sessão

    Previsão horária em Yazhevichi

    Hoje, 23 Setembro, Segunda-feira

    Tempo Temperatura Precipitação Vento Pressão Humidade
    00:00 +6°C° 0 mm 4 m/s 744 mmHg 80%
    01:00 +5°C° 0 mm 4 m/s 745 mmHg 79%
    02:00 +5°C° 0 mm 4 m/s 745 mmHg 78%
    03:00 +4°C° 0 mm 3 m/s 745 mmHg 83%
    04:00 +3°C° 0 mm 3 m/s 746 mmHg 89%
    05:00 +3°C° 0 mm 2 m/s 746 mmHg 94%
    06:00 +2°C° 0 mm 3 m/s 746 mmHg 89%
    07:00 +3°C° 0 mm 3 m/s 747 mmHg 85%
    08:00 +4°C° 0 mm 3 m/s 747 mmHg 80%
    09:00 +5°C° 0 mm 3 m/s 747 mmHg 71%
    10:00 +8°C° 0 mm 3 m/s 747 mmHg 62%
    11:00 +9°C° 0 mm 3 m/s 748 mmHg 54%
    12:00 +10°C° 0 mm 3 m/s 748 mmHg 50%
    13:00 +11°C° 0 mm 3 m/s 748 mmHg 46%
    14:00 +12°C° 0 mm 2 m/s 748 mmHg 43%
    15:00 +12°C° 0 mm 2 m/s 747 mmHg 46%
    16:00 +10°C° 0 mm 2 m/s 747 mmHg 50%
    17:00 +10°C° 0 mm 2 m/s 747 mmHg 53%
    18:00 +8°C° 0 mm 2 m/s 747 mmHg 56%
    19:00 +6°C° 0 mm 2 m/s 747 mmHg 60%
    20:00 +5°C° 0 mm 2 m/s 747 mmHg 63%
    21:00 +4°C° 0 mm 2 m/s 747 mmHg 65%
    22:00 +4°C° 0 mm 2 m/s 747 mmHg 67%
    23:00 +3°C° 0 mm 2 m/s 747 mmHg 70%

    Amanhã, 24 Setembro, Terça-feira

    Tempo Temperatura Precipitação Vento Pressão Humidade
    00:00 +3°C° 0 mm 2 m/s 747 mmHg 71%
    01:00 +3°C° 0 mm 2 m/s 747 mmHg 73%
    02:00 +2°C° 0 mm 2 m/s 748 mmHg 74%
    03:00 +2°C° 0 mm 2 m/s 747 mmHg 75%
    04:00 +2°C° 0 mm 2 m/s 747 mmHg 77%
    05:00 +2°C° 0 mm 1 m/s 747 mmHg 78%
    06:00 +2°C° 0 mm 2 m/s 747 mmHg 75%
    07:00 +3°C° 0 mm 2 m/s 747 mmHg 71%
    08:00 +4°C° 0 mm 2 m/s 747 mmHg 68%
    09:00 +6°C° 0 mm 2 m/s 747 mmHg 61%
    10:00 +8°C° 0 mm 2 m/s 747 mmHg 55%
    11:00 +10°C° 0 mm 2 m/s 747 mmHg 49%
    12:00 +10°C° 0 mm 2 m/s 746 mmHg 46%
    13:00 +12°C° 0 mm 2 m/s 746 mmHg 43%
    14:00 +13°C° 0 mm 2 m/s 746 mmHg 40%
    15:00 +12°C° 0 mm 2 m/s 745 mmHg 45%
    16:00 +10°C° 0 mm 2 m/s 745 mmHg 49%
    17:00 +10°C° 0 mm 2 m/s 744 mmHg 54%
    18:00 +8°C° 0 mm 2 m/s 744 mmHg 56%
    19:00 +7°C° 0 mm 2 m/s 745 mmHg 59%
    20:00 +5°C° 0 mm 2 m/s 745 mmHg 61%
    21:00 +4°C° 0 mm 3 m/s 745 mmHg 62%
    22:00 +3°C° 0 mm 3 m/s 745 mmHg 63%
    23:00 +3°C° 0 mm 3 m/s 745 mmHg 64%

    Depois de amanhã, 25 Setembro, Quarta-feira

    Tempo Temperatura Precipitação Vento Pressão Humidade
    00:00 +2°C° 0 mm 3 m/s 744 mmHg 64%
    01:00 +2°C° 0 mm 3 m/s 744 mmHg 65%
    02:00 +2°C° 0 mm 3 m/s 744 mmHg 66%
    03:00 +1°C° 0 mm 3 m/s 744 mmHg 67%
    04:00 +1°C° 0 mm 3 m/s 744 mmHg 68%
    05:00 +1°C° 0 mm 3 m/s 744 mmHg 69%
    06:00 +2°C° 0 mm 3 m/s 743 mmHg 66%
    07:00 +3°C° 0 mm 3 m/s 743 mmHg 63%
    08:00 +4°C° 0 mm 3 m/s 743 mmHg 61%
    09:00 +5°C° 0 mm 3 m/s 743 mmHg 58%
    10:00 +8°C° 0 mm 3 m/s 743 mmHg 56%
    11:00 +10°C° 0 mm 3 m/s 743 mmHg 54%
    12:00 +11°C° 0 mm 4 m/s 743 mmHg 53%
    13:00 +12°C° 0 mm 4 m/s 742 mmHg 53%
    14:00 +13°C° 0 mm 4 m/s 742 mmHg 53%
    15:00 +12°C° 0 mm 4 m/s 741 mmHg 57%
    16:00 +12°C° 0 mm 3 m/s 741 mmHg 60%
    17:00 +12°C° 0 mm 3 m/s 741 mmHg 64%
    18:00 +11°C° 0 mm 3 m/s 741 mmHg 66%
    19:00 +10°C° 0 mm 3 m/s 741 mmHg 69%
    20:00 +9°C° 0 mm 3 m/s 741 mmHg 71%
    21:00 +9°C° 0 mm 3 m/s 741 mmHg 73%
    22:00 +9°C° 0 mm 3 m/s 741 mmHg 75%
    23:00 +9°C° 0 mm 3 m/s 740 mmHg 76%

    26 Setembro, Quinta-feira

    Tempo Temperatura Precipitação Vento Pressão Humidade
    00:00 +8°C° 0 mm 3 m/s 740 mmHg 77%
    01:00 +8°C° 0 mm 3 m/s 740 mmHg 78%
    02:00 +8°C° 0 mm 3 m/s 740 mmHg 79%
    03:00 +8°C° 0 mm 3 m/s 740 mmHg 81%
    04:00 +8°C° 0 mm 3 m/s 740 mmHg 83%
    05:00 +7°C° 0 mm 3 m/s 739 mmHg 85%
    06:00 +8°C° 0.4 mm 2 m/s 739 mmHg 86%
    07:00 +8°C° 0.4 mm 2 m/s 739 mmHg 88%
    08:00 +9°C° 0.4 mm 2 m/s 739 mmHg 89%
    09:00 +9°C° 1 mm 3 m/s 739 mmHg 89%
    10:00 +9°C° 1 mm 3 m/s 740 mmHg 90%
    11:00 +10°C° 1 mm 4 m/s 740 mmHg 91%
    12:00 +11°C° 0.1 mm 3 m/s 740 mmHg 90%
    13:00 +12°C° 0.1 mm 3 m/s 740 mmHg 89%
    14:00 +14°C° 0.1 mm 2 m/s 739 mmHg 88%
    15:00 +14°C° 0.4 mm 2 m/s 739 mmHg 89%
    16:00 +14°C° 0.4 mm 2 m/s 739 mmHg 91%
    17:00 +14°C° 0.4 mm 2 m/s 739 mmHg 92%
    18:00 +13°C° 0.3 mm 2 m/s 740 mmHg 94%
    19:00 +12°C° 0.3 mm 2 m/s 740 mmHg 95%
    20:00 +10°C° 0.3 mm 2 m/s 740 mmHg 97%
    21:00 +10°C° 0 mm 2 m/s 740 mmHg 97%
    22:00 +11°C° 0 mm 1 m/s 740 mmHg 97%
    23:00 +11°C° 0 mm 1 m/s 741 mmHg 98%

    27 Setembro, Sexta-feira

    Tempo Temperatura Precipitação Vento Pressão Humidade
    00:00 +11°C° 0 mm 1 m/s 741 mmHg 98%
    01:00 +11°C° 0 mm 1 m/s 741 mmHg 98%
    02:00 +11°C° 0 mm 1 m/s 741 mmHg 98%
    03:00 +11°C° 0 mm 1 m/s 741 mmHg 98%
    04:00 +11°C° 0 mm 1 m/s 741 mmHg 98%
    05:00 +10°C° 0 mm 2 m/s 741 mmHg 97%
    06:00 +10°C° 0 mm 2 m/s 742 mmHg 97%
    07:00 +10°C° 0 mm 2 m/s 742 mmHg 97%
    08:00 +10°C° 0 mm 2 m/s 742 mmHg 96%
    09:00 +10°C° 0 mm 2 m/s 742 mmHg 94%
    10:00 +12°C° 0 mm 2 m/s 743 mmHg 92%
    11:00 +13°C° 0 mm 2 m/s 743 mmHg 90%
    12:00 +13°C° 0 mm 2 m/s 743 mmHg 88%
    13:00 +14°C° 0 mm 2 m/s 743 mmHg 86%
    14:00 +14°C° 0 mm 1 m/s 743 mmHg 84%
    15:00 +14°C° 0.1 mm 1 m/s 743 mmHg 84%
    16:00 +14°C° 0.1 mm 1 m/s 744 mmHg 85%
    17:00 +14°C° 0.1 mm 1 m/s 744 mmHg 86%
    18:00 +13°C° 0 mm 1 m/s 744 mmHg 88%
    19:00 +12°C° 0 mm 1 m/s 744 mmHg 91%
    20:00 +12°C° 0 mm 1 m/s 744 mmHg 93%
    21:00 +11°C° 0 mm 1 m/s 744 mmHg 94%
    22:00 +11°C° 0 mm 1 m/s 744 mmHg 94%
    23:00 +10°C° 0 mm 1 m/s 745 mmHg 95%

    28 Setembro, Sábado

    Tempo Temperatura Precipitação Vento Pressão Humidade
    00:00 +10°C° 0 mm 1 m/s 744 mmHg 96%
    01:00 +8°C° 0 mm 2 m/s 744 mmHg 96%
    02:00 +8°C° 0 mm 2 m/s 744 mmHg 96%
    03:00 +8°C° 0 mm 2 m/s 744 mmHg 96%
    04:00 +8°C° 0 mm 2 m/s 744 mmHg 96%
    05:00 +8°C° 0 mm 3 m/s 744 mmHg 96%
    06:00 +9°C° 0 mm 3 m/s 744 mmHg 93%
    07:00 +8°C° 0 mm 4 m/s 743 mmHg 91%
    08:00 +10°C° 0 mm 4 m/s 743 mmHg 89%
    09:00 +11°C° 0 mm 4 m/s 743 mmHg 87%
    10:00 +12°C° 0 mm 5 m/s 743 mmHg 85%
    11:00 +14°C° 0 mm 5 m/s 743 mmHg 83%
    12:00 +15°C° 0.1 mm 5 m/s 742 mmHg 79%
    13:00 +16°C° 0.1 mm 5 m/s 742 mmHg 76%
    14:00 +19°C° 0.1 mm 5 m/s 742 mmHg 73%
    15:00 +18°C° 0 mm 4 m/s 741 mmHg 75%
    16:00 +18°C° 0 mm 4 m/s 741 mmHg 78%
    17:00 +17°C° 0 mm 3 m/s 741 mmHg 80%
    18:00 +16°C° 1.2 mm 3 m/s 740 mmHg 85%
    19:00 +16°C° 1.2 mm 3 m/s 740 mmHg 90%
    20:00 +14°C° 1.2 mm 3 m/s 740 mmHg 95%
    21:00 +14°C° 1.6 mm 3 m/s 740 mmHg 96%
    22:00 +14°C° 1.6 mm 3 m/s 740 mmHg 97%
    23:00 +13°C° 1.6 mm 3 m/s 739 mmHg 98%
    Mostrar mais